Home   Weather   Achim   Past weeks

Flag for Germany Past Weather in Achim, Lower Saxony, Germany — Yesterday and Last 2 Weeks

48 °F

Scattered clouds.

Feels Like: 46 °F
Forecast: 37 / 50 °F
Wind: 6 mph from East

Location: Bremen Airport

Current Time: Oct 23, 2016 at 6:12:07 PM

Latest Report: Oct 23, 2016 at 5:50 PM

Visibility: N/A

Pressure: 29.95 "Hg

Humidity: 76%

Dew Point: 41 °F

Location of AchimLocation

Past Weather in Achim — Graph


Achim Temperature Yesterday

Maximum temperature yesterday: 50 °F (at 1:50 PM)
Minimum temperature yesterday: 43 °F (at 3:50 AM)
Average temperature yesterday: 46 °F

High & Low Weather Summary for the Past Weeks

High63 °F (Oct 16, 3:50 PM)100% (Oct 9, 2:20 AM)30.30 "Hg (Oct 9, 2:20 AM)
Low34 °F (Oct 10, 5:20 AM)54% (Oct 10, 2:20 PM)29.74 "Hg (Oct 15, 3:50 AM)
Average48 °F89%30.06 "Hg
* Reported Oct 8 4:20 PM — Oct 23 4:50 PM, Achim, Weather by CustomWeather, © 2016

Note: Actual official high and low records may vary slightly from our data, if they occured in-between our weather recording intervals... More about our weather records


Achim Weather History for the Previous 24 Hours

Scroll right to see more
Time TempWeatherWind HumidityBarometerVisibility
4:50 PM
Sun, Oct 23
50 °FPassing clouds.7 mph67%29.95 "HgN/A
4:20 PM50 °FScattered clouds.9 mph62%29.95 "HgN/A
3:50 PM50 °FScattered clouds.8 mph62%29.95 "HgN/A
3:20 PM52 °FScattered clouds.8 mph58%29.95 "HgN/A
2:50 PM50 °FScattered clouds.9 mph71%29.95 "HgN/A
2:20 PM52 °FPassing clouds.8 mph72%29.95 "HgN/A
1:50 PM52 °FPassing clouds.8 mph67%29.95 "HgN/A
1:20 PM50 °FPassing clouds.8 mph82%29.95 "HgN/A
12:50 PM48 °FPassing clouds.9 mph87%29.98 "HgN/A
12:20 PM46 °FPassing clouds.8 mph93%29.98 "HgN/A
11:50 AM46 °FPassing clouds.9 mph93%29.98 "Hg3 mi
11:20 AM45 °FFog.8 mph93%29.98 "Hg3 mi
10:50 AM46 °FFog.7 mph93%29.98 "Hg3 mi
10:20 AM45 °FFog.5 mph100%29.98 "Hg3 mi
9:50 AM45 °FFog.6 mph93%29.98 "Hg2 mi
9:20 AM43 °FFog.6 mph100%29.95 "Hg2 mi
8:50 AM41 °FFog.5 mph100%29.95 "Hg2 mi
8:20 AM41 °FFog.5 mph100%29.95 "Hg2 mi
7:50 AM43 °FFog.5 mph100%29.95 "Hg2 mi
7:20 AM43 °FPartly cloudy.3 mph100%29.95 "Hg4 mi
6:50 AM43 °FPassing clouds.3 mph100%29.95 "Hg4 mi
6:20 AM43 °FFog.2 mph100%29.95 "Hg3 mi
5:50 AM45 °FFog.2 mph100%29.95 "Hg3 mi
5:20 AM45 °FDrizzle. Fog.3 mph100%29.95 "Hg3 mi
4:50 AM45 °FDrizzle. Fog.3 mph100%29.95 "Hg3 mi
4:20 AM45 °FFog.3 mph100%29.95 "Hg3 mi
3:50 AM45 °FFog.3 mph100%29.95 "Hg3 mi
3:20 AM45 °FLow clouds.5 mph100%29.95 "Hg4 mi
2:50 AM45 °FLow clouds.3 mph100%29.95 "Hg5 mi
2:20 AM45 °FLow clouds.3 mph100%29.95 "Hg4 mi
1:50 AM45 °FLow clouds.No wind100%29.95 "Hg3 mi
1:20 AM45 °FPartly cloudy.2 mph100%29.95 "Hg3 mi
12:50 AM45 °FPartly cloudy.No wind100%29.95 "Hg4 mi
12:20 AM45 °FPartly cloudy.No wind100%29.95 "Hg4 mi
11:50 PM
Sat, Oct 22
45 °FPassing clouds.2 mph100%29.95 "Hg4 mi
11:20 PM45 °FLight rain. Fog.2 mph100%29.95 "Hg3 mi
10:50 PM45 °FSprinkles. Partly cloudy.1 mph100%29.95 "Hg4 mi
10:20 PM45 °FSprinkles. Partly cloudy.2 mph100%29.95 "Hg5 mi
9:50 PM46 °FSprinkles. Partly cloudy.3 mph93%29.95 "Hg4 mi
9:20 PM46 °FPassing clouds.3 mph93%29.95 "HgN/A
8:50 PM46 °FPartly cloudy.2 mph93%29.95 "HgN/A
8:20 PM46 °FPartly cloudy.2 mph93%29.95 "HgN/A
7:50 PM46 °FLight rain. Passing clouds.3 mph93%29.95 "HgN/A
7:20 PM46 °FPartly cloudy.5 mph93%29.95 "HgN/A
6:50 PM48 °FPassing clouds.5 mph87%29.95 "HgN/A
6:20 PM48 °FPassing clouds.3 mph87%29.95 "HgN/A
Weather by CustomWeather, © 2016

See weather overviewHow to use our weather pages